[[{"header":{"parameterUnit":"m.s-1","parameterCategory":1,"la1":30.2991,"la2":30.254,"lo1":-89.0895,"lo2":-89.0444,"dy":0.0017,"dx":0.0017,"nx":28,"ny":28,"refTime":"2023-11-09T03:00:00:Z","depth":0,"parameterNumber":2,"parameterNumberName":"U-component_of_WINDS"},"data":[0,0,0,0,0,0,0,0,0,0,0,0,0,0,0,0,0,0,0,0,0,0,0,0,0,0,0,0,0,0,0,0,0,0,0,0,0,0,0,0,0,0,0,0,0,0,0,0,0,0,0,0,0,0,0,0,0,0,-2.6095,-2.6094,0,-2.6046,-2.6045,-2.6044,-2.5994,-2.5994,-2.5993,-2.5993,-2.594,-2.5939,-2.5938,0,0,0,0,0,0,0,0,0,0,0,0,0,-2.6143,-2.6142,-2.6095,-2.6094,-2.6093,-2.6046,-2.6045,-2.6044,-2.5995,-2.5994,-2.5993,-2.5992,-2.594,-2.5939,-2.5938,0,0,0,0,0,0,0,0,0,0,0,0,0,-2.6111,-2.6142,-2.6095,-2.6063,-2.606,-2.6046,-2.6045,-2.6044,-2.5995,-2.5994,-2.5993,-2.5992,-2.594,-2.5939,-2.5938,-2.5951,0,0,-2.5934,-2.5934,0,0,0,0,0,0,0,0,-2.6113,-2.6109,-2.6068,-2.6065,-2.6061,-2.6025,-2.6042,-2.6013,-2.5995,-2.6019,-2.5992,-2.5991,-2.5969,-2.5965,-2.5958,-2.5948,-2.5946,-2.5934,-2.5933,-2.5933,-2.5933,0,0,0,0,0,0,0,-2.6115,-2.6111,-2.6075,-2.6068,-2.6064,-2.605,-2.6045,-2.6037,-2.6,-2.6017,-2.6013,-2.6008,-2.5967,-2.5959,-2.5956,-2.5945,-2.5934,-2.5933,-2.5932,-2.5932,-2.5942,-2.5943,0,0,0,0,0,0,-2.6122,-2.6113,-2.6077,-2.6074,-2.6085,-2.605,-2.6044,-2.6038,-2.6,-2.5993,-2.6009,-2.6006,-2.5962,-2.5958,-2.5954,-2.5966,-2.5933,-2.5932,-2.5931,-2.5941,-2.5942,-2.5943,0,0,0,0,0,0,-2.6123,-2.612,-2.6079,-2.6092,-2.6086,-2.6051,-2.6044,-2.6037,-2.603,-2.5994,-2.5987,-2.6009,-2.5961,-2.5956,-2.5952,-2.5963,-2.5931,-2.593,-2.594,-2.5941,-2.5943,-2.599,0,0,0,0,0,0,-2.6125,-2.612,-2.6125,-2.6093,-2.6086,-2.6078,-2.6045,-2.6037,-2.6028,-2.6024,-2.5992,-2.5985,-2.596,-2.5954,-2.5951,-2.5961,-2.5929,-2.5939,-2.5941,-2.5942,-2.5987,-2.5993,-2.5998,0,0,0,0,0,-2.6127,-2.614,-2.6126,-2.6122,-2.6091,-2.6079,-2.6075,-2.6045,-2.603,-2.6034,-2.6011,-2.5986,-2.5963,-2.5954,-2.595,-2.596,-2.5938,-2.594,-2.5942,-2.5985,-2.5992,-2.5997,0,0,0,0,0,0,-2.6174,-2.6135,-2.6119,-2.6122,-2.6104,-2.607,-2.6075,-2.6054,-2.6039,-2.6036,-2.5999,-2.5992,-2.5992,-2.5976,-2.5966,-2.597,-2.5947,-2.5948,-2.5981,-2.5987,-2.5992,-2.5995,-2.5928,0,0,0,0,0,-2.6185,-2.6179,-2.6145,-2.6151,-2.6143,-2.6111,-2.6104,-2.6084,-2.6063,-2.6055,-2.6031,-2.6012,-2.6,-2.5993,-2.598,-2.5985,-2.5976,-2.599,-2.5995,-2.6,-2.6001,-2.6001,-2.6006,-2.5951,-2.5951,-2.595,0,0,-2.6208,-2.6186,-2.6184,-2.616,-2.6144,-2.6137,-2.6105,-2.6099,-2.6094,-2.6054,-2.6048,-2.6031,-2.6006,-2.6007,-2.6006,-2.5993,-2.6015,-2.6002,-2.6006,-2.6005,-2.6004,-2.6009,-2.6014,-2.5952,-2.5952,-2.5952,0,0,-2.6244,-2.6228,-2.6231,-2.6215,-2.6191,-2.6169,-2.617,-2.6139,-2.6126,-2.6121,-2.609,-2.6083,-2.6063,-2.6047,-2.6036,-2.6067,-2.6043,-2.6064,-2.609,-2.6091,-2.6096,-2.6099,-2.6109,-2.6113,-2.6065,-2.6065,-2.6065,0,-2.6275,-2.6265,-2.6235,-2.6231,-2.6221,-2.6186,-2.6188,-2.6174,-2.6146,-2.614,-2.6126,-2.6101,-2.6082,-2.6077,-2.6085,-2.6078,-2.6076,-2.6066,-2.6098,-2.6101,-2.6104,-2.6113,-2.6117,-2.6068,-2.6068,-2.6067,-2.6067,0,-2.6303,-2.6296,-2.6301,-2.6276,-2.6267,-2.6266,-2.6235,-2.6229,-2.621,-2.6189,-2.6183,-2.6159,-2.6141,-2.6138,-2.6119,-2.6131,-2.6123,-2.6105,-2.608,-2.6112,-2.612,-2.6123,-2.6071,-2.6071,-2.607,-2.6069,0,0,-2.6367,-2.6326,-2.6328,-2.6316,-2.6287,-2.6281,-2.6278,-2.6261,-2.6256,-2.6238,-2.6234,-2.6219,-2.6201,-2.6188,-2.6166,-2.6167,-2.6192,-2.6148,-2.6147,-2.6156,-2.6202,-2.6216,-2.622,-2.6177,-2.6177,-2.6178,-2.6204,0,-2.6398,-2.6392,-2.6365,-2.6366,-2.6359,-2.6325,-2.6323,-2.6304,-2.6285,-2.6275,-2.6254,-2.6243,-2.6221,-2.6213,-2.6213,-2.6189,-2.62,-2.6187,-2.6171,-2.6171,-2.6177,-2.6225,-2.6239,-2.6265,-2.6207,-2.6207,-2.6208,0,-2.6434,-2.6419,-2.642,-2.639,-2.6386,-2.6385,-2.6366,-2.6358,-2.6335,-2.6321,-2.6308,-2.6283,-2.6277,-2.6256,-2.6246,-2.6238,-2.623,-2.6217,-2.6218,-2.6214,-2.619,-2.6221,-2.6273,-2.6276,-2.6212,-2.6212,-2.6212,0,-2.6479,-2.646,-2.6457,-2.6448,-2.6414,-2.6413,-2.6399,-2.6376,-2.6367,-2.635,-2.6344,-2.6327,-2.6317,-2.6304,-2.6275,-2.6262,-2.6269,-2.6245,-2.6255,-2.6256,-2.6257,-2.6257,-2.6307,-2.6254,-2.6254,-2.6254,-2.6254,0,-2.6516,-2.6518,-2.6477,-2.6476,-2.6476,-2.6445,-2.6446,-2.6428,-2.6408,-2.6401,-2.6371,-2.6365,-2.6328,-2.6318,-2.6296,-2.6291,-2.6287,-2.6274,-2.6268,-2.6276,-2.6278,-2.6269,-2.6266,-2.6255,-2.6255,-2.6255,-2.6255,0,-2.6567,-2.654,-2.6535,-2.6503,-2.6495,-2.6497,-2.6469,-2.6466,-2.6445,-2.6437,-2.6434,-2.6401,-2.6387,-2.6358,-2.6336,-2.6321,-2.632,-2.631,-2.6328,-2.6324,-2.6336,-2.6335,-2.6381,-2.6385,-2.6331,-2.6332,-2.6332,0,-2.6592,-2.6592,-2.656,-2.6554,-2.6541,-2.6532,-2.6523,-2.6492,-2.6483,-2.6457,-2.6457,-2.6441,-2.6427,-2.6407,-2.638,-2.6363,-2.6351,-2.6368,-2.6348,-2.6356,-2.635,-2.635,-2.6349,-2.6373,-2.6373,-2.6374,-2.6374,0,-2.6638,-2.6625,-2.6613,-2.6597,-2.6587,-2.6572,-2.6555,-2.6552,-2.6517,-2.6508,-2.6495,-2.6484,-2.6462,-2.6446,-2.6425,-2.6408,-2.6385,-2.6381,-2.6383,-2.639,-2.64,-2.6394,-2.6339,-2.638,-2.6379,-2.6379,-2.6379,-2.6379,-2.6676,-2.6674,-2.6651,-2.6639,-2.6624,-2.6609,-2.6604,-2.6583,-2.6571,-2.6551,-2.6533,-2.6521,-2.6498,-2.6467,-2.6453,-2.6441,-2.643,-2.6432,-2.6432,-2.6433,-2.6436,-2.6403,-2.6438,-2.6437,-2.6437,-2.6437,-2.6437,0,-2.6719,-2.6703,-2.6692,-2.667,-2.6661,-2.6641,-2.6621,-2.6614,-2.6604,-2.6585,-2.6571,-2.6555,-2.6539,-2.6512,-2.6493,-2.649,-2.6478,-2.6486,-2.6485,-2.6481,-2.6448,-2.6448,-2.6495,-2.6495,-2.6495,-2.6495,-2.6495,-2.6495,-2.6741,-2.6737,-2.6721,-2.6709,-2.6692,-2.668,-2.6671,-2.6656,-2.6641,-2.6624,-2.6611,-2.6594,-2.6571,-2.6551,-2.6535,-2.6527,-2.6521,-2.6532,-2.652,-2.649,-2.6484,-2.6479,-2.6479,-2.6531,-2.6531,-2.6554,-2.6555,-2.6555]},{"header":{"parameterUnit":"m.s-1","parameterCategory":1,"la1":30.2991,"la2":30.254,"lo1":-89.0895,"lo2":-89.0444,"dy":0.0017,"dx":0.0017,"nx":28,"ny":28,"refTime":"2023-11-09T03:00:00:Z","depth":0,"parameterNumber":3,"parameterNumberName":"V-component_of_WINDS"},"data":[0,0,0,0,0,0,0,0,0,0,0,0,0,0,0,0,0,0,0,0,0,0,0,0,0,0,0,0,0,0,0,0,0,0,0,0,0,0,0,0,0,0,0,0,0,0,0,0,0,0,0,0,0,0,0,0,0,0,2.6358,2.6358,0,2.633,2.6329,2.6329,2.6293,2.6293,2.6292,2.6291,2.6258,2.6258,2.6257,0,0,0,0,0,0,0,0,0,0,0,0,0,2.638,2.638,2.6358,2.6358,2.6358,2.633,2.6329,2.6329,2.6293,2.6292,2.6292,2.6291,2.6258,2.6258,2.6257,0,0,0,0,0,0,0,0,0,0,0,0,0,2.6363,2.638,2.6359,2.6337,2.6334,2.633,2.6329,2.6329,2.6293,2.6292,2.6292,2.6291,2.6258,2.6258,2.6257,2.6271,0,0,2.6255,2.6255,0,0,0,0,0,0,0,0,2.6364,2.6362,2.634,2.6338,2.6336,2.6314,2.6325,2.6309,2.6294,2.6309,2.6291,2.629,2.6277,2.6275,2.6271,2.6269,2.6268,2.6255,2.6255,2.6255,2.6255,0,0,0,0,0,0,0,2.6365,2.6363,2.6347,2.634,2.6337,2.6328,2.6324,2.6322,2.6298,2.6307,2.6305,2.6302,2.6276,2.6272,2.627,2.6267,2.6255,2.6255,2.6255,2.6254,2.6278,2.6278,0,0,0,0,0,0,2.637,2.6364,2.6348,2.6346,2.6348,2.6328,2.6324,2.6322,2.6298,2.6293,2.6303,2.63,2.6273,2.6271,2.6269,2.6285,2.6255,2.6254,2.6254,2.6277,2.6278,2.6279,0,0,0,0,0,0,2.6371,2.6369,2.6349,2.6355,2.6351,2.6328,2.6326,2.6322,2.6318,2.6294,2.629,2.6304,2.6272,2.627,2.6271,2.6283,2.6254,2.6254,2.6275,2.6277,2.6278,2.6316,0,0,0,0,0,0,2.6372,2.6369,2.6375,2.6355,2.6351,2.6353,2.6327,2.6322,2.6318,2.6314,2.6294,2.629,2.6272,2.6272,2.6271,2.6282,2.6253,2.6274,2.6276,2.6278,2.6314,2.6319,2.6323,0,0,0,0,0,2.6372,2.6385,2.6375,2.6373,2.6357,2.6353,2.6351,2.6331,2.6319,2.6324,2.6309,2.629,2.6282,2.6273,2.6271,2.6282,2.6273,2.6276,2.6278,2.6312,2.6318,2.6323,0,0,0,0,0,0,2.6404,2.6382,2.6371,2.6377,2.6368,2.6347,2.6353,2.6338,2.6331,2.6328,2.6302,2.6298,2.6303,2.6293,2.6282,2.6295,2.6275,2.6277,2.6302,2.6308,2.6312,2.6314,2.6253,0,0,0,0,0,2.6412,2.6412,2.6392,2.64,2.6396,2.6376,2.6373,2.6359,2.6347,2.6343,2.6328,2.6317,2.6312,2.6309,2.6303,2.6313,2.6308,2.6319,2.6324,2.6328,2.633,2.6336,2.6341,2.6286,2.6286,2.6286,0,0,2.6428,2.6416,2.6417,2.6406,2.6397,2.6397,2.6372,2.6372,2.6372,2.6342,2.6344,2.6333,2.6319,2.6325,2.6327,2.6316,2.6344,2.6331,2.6334,2.6333,2.6339,2.6344,2.6349,2.6287,2.6287,2.6287,0,0,2.6457,2.6448,2.6455,2.6447,2.6435,2.6422,2.6423,2.6406,2.6398,2.64,2.6379,2.6378,2.6369,2.6361,2.6356,2.6386,2.6369,2.6385,2.6408,2.6415,2.6419,2.6423,2.6435,2.644,2.6386,2.6386,2.6387,0,2.6478,2.6478,2.6459,2.6462,2.6459,2.6434,2.6441,2.6434,2.642,2.6418,2.6407,2.6398,2.6386,2.6392,2.64,2.6396,2.6397,2.6386,2.6421,2.6424,2.6427,2.6439,2.6443,2.6389,2.6388,2.6388,2.6388,0,2.6505,2.6506,2.6513,2.6503,2.65,2.6504,2.6486,2.6485,2.6473,2.6461,2.6464,2.645,2.6442,2.6442,2.6428,2.6446,2.6441,2.6425,2.6405,2.6435,2.6445,2.6449,2.6392,2.6391,2.639,2.639,0,0,2.6551,2.6534,2.6536,2.6533,2.6519,2.6519,2.6523,2.6517,2.6518,2.6509,2.6513,2.6508,2.6495,2.6489,2.6475,2.6481,2.6508,2.6465,2.6464,2.6474,2.6529,2.6541,2.6546,2.6497,2.6497,2.6498,2.653,0,2.6579,2.6586,2.6571,2.6582,2.6583,2.6562,2.6566,2.6558,2.6548,2.6547,2.6535,2.6533,2.6515,2.6511,2.6516,2.6503,2.6518,2.6501,2.65,2.65,2.6504,2.6551,2.6563,2.6594,2.6534,2.6535,2.6535,0,2.6611,2.6608,2.662,2.6608,2.6608,2.6612,2.6607,2.6606,2.6597,2.659,2.6585,2.6569,2.6573,2.6554,2.6559,2.6548,2.6547,2.6541,2.6541,2.654,2.6519,2.6552,2.6603,2.6608,2.6541,2.654,2.654,0,2.6645,2.6643,2.6651,2.6648,2.6634,2.6638,2.6632,2.6623,2.6621,2.6617,2.6616,2.6611,2.6609,2.6605,2.6589,2.6576,2.6597,2.6576,2.6591,2.6591,2.6596,2.6596,2.6648,2.6594,2.6594,2.6594,2.6594,0,2.6678,2.6686,2.6667,2.6671,2.6681,2.6663,2.6673,2.6664,2.6657,2.666,2.664,2.6643,2.6621,2.6622,2.6609,2.6616,2.6615,2.6609,2.6605,2.6611,2.6612,2.661,2.6607,2.6595,2.6595,2.6595,2.6595,0,2.6717,2.6704,2.6711,2.6699,2.6696,2.6704,2.6693,2.6697,2.6687,2.6691,2.6691,2.6674,2.6675,2.6658,2.6654,2.6646,2.6659,2.6651,2.6662,2.666,2.6677,2.6676,2.673,2.6737,2.6678,2.6679,2.6679,0,2.6738,2.6745,2.6735,2.6736,2.6732,2.6734,2.6734,2.6717,2.6717,2.671,2.6715,2.6714,2.6712,2.6714,2.6701,2.6698,2.6691,2.671,2.669,2.6697,2.6693,2.6693,2.6694,2.6714,2.6715,2.6715,2.6716,0,2.6779,2.6773,2.6774,2.6773,2.6774,2.6772,2.6768,2.6771,2.6753,2.6754,2.6755,2.6754,2.6752,2.6752,2.6748,2.6741,2.6726,2.6723,2.6726,2.6732,2.6739,2.6737,2.6675,2.6721,2.6721,2.672,2.672,2.672,2.681,2.6816,2.6811,2.6813,2.681,2.6808,2.6812,2.6804,2.6805,2.6803,2.6793,2.6797,2.679,2.6783,2.6778,2.6781,2.6771,2.6776,2.6777,2.6779,2.6783,2.6739,2.678,2.6779,2.6779,2.6779,2.6779,0,2.6851,2.6847,2.6849,2.6847,2.6849,2.6837,2.6834,2.6836,2.684,2.6835,2.6835,2.6838,2.6838,2.6827,2.6826,2.6831,2.6824,2.6831,2.683,2.683,2.679,2.6788,2.6837,2.6837,2.6837,2.6837,2.6837,2.6837,2.6872,2.6882,2.6876,2.6885,2.6881,2.6886,2.6885,2.6884,2.6881,2.6885,2.6886,2.688,2.6873,2.6872,2.6872,2.6869,2.687,2.688,2.6874,2.6838,2.6832,2.6827,2.6825,2.688,2.688,2.6913,2.6914,2.6914]}]]